User: anonymous   Login
Location: Vancouver
(49.2500°N, 123.1330°W)
Time: 03:01:26
(UTC-08:00)
Language:

Cosmos 1939 Rocket - Orbit

View from above orbital plane
View from above orbital plane
View from above satellite
View from above satellite

Ground track
Ground track

The orbit data is extracted from the following two-line orbital elements,

1 19046U 88032B   15064.50541061  .00002805  00000-0  22275-3 0  9995
2 19046 097.6215 119.0675 0040502 290.8865 068.8025 15.00668048447372
Epoch (UTC): 05 March 2015 12:07:47
Eccentricity: 0.0040502
inclination: 97.6215°
perigee height: 537 km
apogee height: 593 km
right ascension of ascending node: 119.0675°
argument of perigee: 290.8865°
revolutions per day: 15.00668048
mean anomaly at epoch: 68.8025°
orbit number at epoch: 44737

The dashed part of the orbit path shows where the satellite is in the earth's shadow,  

DLR